metlocid,date_time,avg_airt3m,stddev_airt3m,min_airt3m,max_airt3m,n_airt3m,n_comments
MISM,1/28/12,-2.09615388,0.469773832,-3.03,-1.08,39,0
MISM,1/29/12,-2.954270819,1.00877492,-4.68,-1.36,96,0
MISM,1/30/12,-3.602916676,1.431042275,-6.69,-0.02,96,0
MISM,1/31/12,-4.769791675,0.651186753,-6.3,-3.02,96,0
MISM,2/1/12,-4.651250002,1.730729812,-8.07,-2.47,96,0
MISM,2/2/12,-3.807187521,1.158197978,-5.61,-1.64,96,0
MISM,2/3/12,-3.42104166,0.487212217,-4.97,-2.44,96,0
MISM,2/4/12,-5.314895836,1.16754983,-7.22,-1.2,96,0
MISM,2/5/12,-6.74104168,0.929334204,-8.67,-5.62,96,0
MISM,2/6/12,-5.384999993,1.924648953,-9.07,-2.83,96,0
MISM,2/7/12,-1.511666666,1.492127175,-4.31,1.02,96,0
MISM,2/8/12,-2.675729138,1.997991996,-6.13,2.41,96,0
MISM,2/9/12,-4.792812496,1.297368765,-7.67,-2.15,96,0
MISM,2/10/12,-4.794999996,1.699349108,-7.82,-1.08,96,0
MISM,2/11/12,-5.640624994,1.89186113,-8.86,-1.59,96,0
MISM,2/12/12,-7.558437531,0.862901273,-9.72,-6.41,96,0
MISM,2/13/12,-8.004062494,1.111981218,-9.66,-6.22,96,0
MISM,2/14/12,-9.037291661,0.60911581,-10.5,-7.63,96,0
MISM,2/15/12,-9.572187458,1.563984265,-12.98,-5.77,96,0
MISM,2/16/12,-12.1984375,0.695529071,-13.67,-10.73,96,0
MISM,2/17/12,-11.79552087,1.749894372,-14.99,-9.53,96,0
MISM,2/18/12,-7.961979173,4.348825742,-14.34,-2.23,96,0
MISM,2/19/12,-1.354479171,0.994226358,-2.75,0.9,96,0
MISM,2/20/12,0.463541662,2.275511269,-3.68,4,96,0
MISM,2/21/12,-0.451874997,1.711111857,-5.79,1.79,96,0
MISM,2/22/12,-7.86583332,1.555605597,-11.43,-3.86,96,0
MISM,2/23/12,-7.094791668,3.12797663,-12.64,-2.24,96,0
MISM,2/24/12,-9.565104152,1.187574216,-12.54,-6.66,96,0
MISM,2/25/12,-12.44458337,1.214012874,-14.76,-9.05,96,0
MISM,2/26/12,-11.48468749,1.244644941,-12.96,-9.53,96,0
MISM,2/27/12,-10.64333331,0.873106617,-13.55,-8.85,96,0
MISM,2/28/12,-12.79020831,1.300192706,-15.22,-10.09,96,0
MISM,2/29/12,-16.41458334,0.945568003,-18.8,-14.45,96,0
MISM,3/1/12,-17.02406243,1.691116505,-20.05,-13.23,96,0
MISM,3/2/12,-14.74437501,2.305728271,-18.81,-10.86,96,0
MISM,3/3/12,-18.17687494,1.228507238,-20.64,-14.93,96,0
MISM,3/4/12,-17.22364583,2.515608152,-21.02,-13.39,96,0
MISM,3/5/12,-14.58552084,1.566528754,-17.64,-11.46,96,0
MISM,3/6/12,-14.24114583,1.841597588,-17.23,-10.61,96,0
MISM,3/7/12,-16.71781238,1.192570963,-19.38,-13,96,0
MISM,3/8/12,-16.98739594,1.477669802,-19.37,-14.06,96,0
MISM,3/9/12,-18.32208322,1.463343514,-21.31,-12.89,96,0
MISM,3/10/12,-14.65624998,2.418967712,-19.84,-10.25,96,0
MISM,3/11/12,-11.17333334,2.326577158,-14.26,-6.77,96,0
MISM,3/12/12,-9.126875018,1.009710039,-11.31,-6.67,96,0
MISM,3/13/12,-9.78239585,1.039226198,-12.34,-8.17,96,0
MISM,3/14/12,-8.552604164,1.265481187,-11.04,-6.48,96,0
MISM,3/15/12,-11.25197915,1.526223828,-15.46,-8.9,96,0
MISM,3/16/12,-16.11333328,0.830615065,-17.65,-14.65,96,0
MISM,3/17/12,-18.95739581,1.253001671,-21.31,-16.87,96,0
MISM,3/18/12,-18.35833339,1.894983774,-21.94,-15.34,96,0
MISM,3/19/12,-23.70156248,1.831097718,-27.46,-20.08,96,0
MISM,3/20/12,-27.95218752,1.621336081,-30.5,-24.26,96,0
MISM,3/21/12,-23.87145843,2.34492945,-30.31,-20.12,96,0
MISM,3/22/12,-25.04635415,1.638977948,-28.2,-21.63,96,0
MISM,3/23/12,-21.04145834,3.211906105,-26.82,-13.33,96,0
MISM,3/24/12,-16.26624999,6.041374946,-25.5,-7.82,96,0
MISM,3/25/12,-25.25927085,0.655379746,-26.92,-23.69,96,0
MISM,3/26/12,-22.77135426,2.016529351,-26.2,-19.77,96,0
MISM,3/27/12,-19.49343747,1.855309875,-23.56,-16.64,96,0
MISM,3/28/12,-16.15114584,1.114824418,-18.76,-13.59,96,0
MISM,3/29/12,-15.11802083,1.641694677,-18.43,-10.72,96,0
MISM,3/30/12,-8.51281249,2.346610396,-11.6,-4.25,96,0
MISM,3/31/12,-13.07385419,1.244355157,-15.01,-9.98,96,0
MISM,4/1/12,-14.59718746,0.786429258,-16.24,-12.96,96,0
MISM,4/2/12,-16.69645826,1.353080675,-20.33,-13.97,96,0
MISM,4/3/12,-20.92645828,1.075288939,-23.72,-18.47,96,0
MISM,4/4/12,-25.30291667,1.190679588,-27.66,-22.8,96,0
MISM,4/5/12,-27.87968755,1.154894757,-30.59,-24.84,96,0
MISM,4/6/12,-27.43291662,1.03611511,-29.82,-25.28,96,0
MISM,4/7/12,-29.65489578,0.910872403,-32.06,-27.9,96,0
MISM,4/8/12,-28.71593746,0.898136752,-31.03,-27.01,96,0
MISM,4/9/12,-27.41302089,1.972107274,-31.33,-23.7,96,0
MISM,4/10/12,-28.58031237,1.205985463,-31,-26.16,96,0
MISM,4/11/12,-25.96031245,1.961336126,-28.94,-20.4,96,0
MISM,4/12/12,-18.13520828,1.961996263,-21.89,-14.15,96,0
MISM,4/13/12,-24.79354165,2.446887923,-29.48,-17.01,96,0
MISM,4/14/12,-27.90552088,1.026639759,-30.28,-25.33,96,0
MISM,4/15/12,-26.87218748,1.406647544,-29.42,-21.27,96,0
MISM,4/16/12,-22.69541663,1.841496515,-26.22,-19.15,96,0
MISM,4/17/12,-22.2605208,1.166825061,-25.19,-19.39,96,0
MISM,4/18/12,-19.3236458,2.268199954,-25.4,-14.53,96,0
MISM,4/19/12,-15.5395833,1.829942141,-19.78,-12.14,96,0
MISM,4/20/12,-23.72739583,3.568946861,-28.38,-16.56,96,0
MISM,4/21/12,-23.06166664,3.799802728,-28.22,-13.57,96,0
MISM,4/22/12,-10.93135418,3.211946349,-17.79,-6.96,96,0
MISM,4/23/12,-14.22531249,1.923270681,-17.02,-9.28,96,0
MISM,4/24/12,-14.76562502,1.933387983,-18.58,-7.24,96,0
MISM,4/25/12,-7.949687481,1.745400208,-10.61,-4.76,96,0
MISM,4/26/12,-14.78666664,3.167750863,-20.59,-9.13,96,0
MISM,4/27/12,-14.4545833,3.290137665,-19.51,-8.25,96,0
MISM,4/28/12,-16.3815626,4.279124245,-23.87,-8.85,96,0
MISM,4/29/12,-26.15291661,0.987534884,-28.38,-23.38,96,0
MISM,4/30/12,-25.22270838,0.891875019,-27.66,-23.75,96,0
MISM,5/1/12,-26.75697915,1.377985727,-29.91,-24.1,96,0
MISM,5/2/12,-30.1996875,1.108311552,-32,-27.68,96,0
MISM,5/3/12,-27.88729175,0.693261494,-29.85,-26.34,96,0
MISM,5/4/12,-22.89843749,4.34408835,-28.53,-15.72,96,0
MISM,5/5/12,-10.44250002,2.341534389,-15.74,-7.08,96,0
MISM,5/6/12,-11.38260424,3.380307182,-17.52,-6.22,96,0
MISM,5/7/12,-8.904687546,3.664252915,-14.25,-3.56,96,0
MISM,5/8/12,-4.976979169,1.239871901,-7.45,-2.76,96,0
MISM,5/9/12,-7.955312488,3.008152036,-13.58,-3.25,96,0
MISM,5/10/12,-12.67354167,1.436106519,-15.96,-9.56,96,0
MISM,5/11/12,-6.746874997,3.160796796,-12.66,0.72,96,0
MISM,5/12/12,-3.49052086,3.993259711,-10.75,1.47,96,0
MISM,5/13/12,-17.19302079,3.94402621,-24.99,-9.06,96,0
MISM,5/14/12,-19.63885423,3.060490494,-24.09,-12.59,96,0
MISM,5/15/12,-11.9839583,1.961,-16.58,-9.12,96,0
MISM,5/16/12,-14.51906251,1.078376069,-17.51,-12.04,96,0
MISM,5/17/12,-15.98770841,2.352478486,-20.05,-12.1,96,0
MISM,5/18/12,-17.72145827,1.386002093,-20.89,-15.46,96,0
MISM,5/19/12,-19.78989583,1.558403674,-22.74,-16.07,96,0
MISM,5/20/12,-21.58781254,1.306772058,-24.73,-18.95,96,0
MISM,5/21/12,-18.24135414,2.128904095,-22.09,-13.09,96,0
MISM,5/22/12,-13.47927082,0.817592454,-14.9,-11.52,96,0
MISM,5/23/12,-16.16302084,1.309282768,-18.43,-12.86,96,0
MISM,5/24/12,-22.41093747,2.974507868,-26.89,-17.16,96,0
MISM,5/25/12,-26.90718742,1.217915174,-29.36,-24.26,96,0
MISM,5/26/12,-20.30354158,3.501651064,-25.41,-15.33,96,0
MISM,5/27/12,-21.23229168,2.247404209,-24.39,-16.54,96,0
MISM,5/28/12,-26.43010424,1.123006654,-29.39,-23.56,96,0
MISM,5/29/12,-22.14177086,2.109014189,-27.57,-19.64,96,0
MISM,5/30/12,-20.3451042,1.016815382,-23.1,-18.13,96,0
MISM,5/31/12,-21.14552085,1.690436793,-25.1,-18.18,96,0
MISM,6/1/12,-25.85020826,1.19481679,-28.23,-22.67,96,0
MISM,6/2/12,-27.82979168,0.839502303,-29.93,-25.9,96,0
MISM,6/3/12,-28.06677079,1.01681696,-30.5,-25.45,96,0
MISM,6/4/12,-27.01531249,1.423845826,-30.44,-24.15,96,0
MISM,6/5/12,-30.58989584,1.362080753,-34.5,-27.59,96,0
MISM,6/6/12,-31.74083328,1.301627799,-35.16,-28.58,96,0
MISM,6/7/12,-30.59916665,2.280609685,-34.34,-27.26,96,0
MISM,6/8/12,-32.36999997,1.619394295,-34.94,-28.47,96,0
MISM,6/9/12,-27.15999997,2.052716374,-31.92,-24.05,96,0
MISM,6/10/12,-33.8980208,1.197680058,-36.5,-31.54,96,0
MISM,6/11/12,-28.54218763,2.969193141,-35.38,-23.23,96,0
MISM,6/12/12,-28.93760421,1.760125386,-32.77,-23.85,96,0
MISM,6/13/12,-30.43437511,2.054488806,-34.45,-23.3,96,0
MISM,6/14/12,-23.3591667,5.087719126,-34.5,-16.33,96,0
MISM,6/15/12,-23.72447905,4.676288747,-32.6,-14.58,96,0
MISM,6/16/12,-13.89531252,1.987821292,-17,-9.1,96,0
MISM,6/17/12,-8.279687469,1.817806898,-12.21,-6.05,96,0
MISM,6/18/12,-18.11781249,3.29213523,-23.77,-12.07,96,0
MISM,6/19/12,-22.54666669,2.249220471,-26.54,-14.87,96,0
MISM,6/20/12,-26.8246874,2.198972921,-30.3,-23.24,96,0
MISM,6/21/12,-29.75125007,1.131215755,-33.02,-26.85,96,0
MISM,6/22/12,-29.87822898,1.48003473,-32.94,-25.34,96,0
MISM,6/23/12,-27.96052084,2.440672122,-33.58,-24.39,96,0
MISM,6/24/12,-29.66666685,2.508988846,-33.99,-24.55,96,0
MISM,6/25/12,-26.13729161,3.043980963,-32.5,-20.35,96,0
MISM,6/26/12,-23.74979178,2.994492873,-31.02,-16.96,96,0
MISM,6/27/12,-20.38447917,3.079810543,-25.56,-14.31,96,0
MISM,6/28/12,-23.69270837,1.238707726,-26.07,-20.7,96,0
MISM,6/29/12,-23.66999998,1.011706171,-26.25,-20.79,96,0
MISM,6/30/12,-22.92499989,1.053532429,-26.23,-20.46,96,0
MISM,7/1/12,-24.7114584,1.355276593,-29.1,-21.37,96,0
MISM,7/2/12,-23.91010422,1.998204204,-28.97,-20.78,96,0
MISM,7/3/12,-27.74510413,1.770307091,-31.68,-23.9,96,0
MISM,7/4/12,-26.00468739,0.970198022,-28.58,-24.06,96,0
MISM,7/5/12,-30.60531235,2.529457886,-35.19,-25.58,96,0
MISM,7/6/12,-34.04281267,0.785844068,-35.89,-32.27,96,0
MISM,7/7/12,-34.1206251,2.107341608,-39.25,-30.06,96,0
MISM,7/8/12,-31.90072932,1.411531696,-35.11,-28.81,96,0
MISM,7/9/12,-30.52718747,1.855814459,-33.14,-22.62,96,0
MISM,7/10/12,-18.74093745,6.533878528,-30.41,-10.79,96,0
MISM,7/11/12,-15.17031247,2.07568601,-20.11,-12.31,96,0
MISM,7/12/12,-23.3777083,2.078700756,-26.46,-19.39,96,0
MISM,7/13/12,-27.28718756,1.551032836,-29.9,-23.18,96,0
MISM,7/14/12,-30.31208332,2.323396769,-34.4,-24.25,96,0
MISM,7/15/12,-33.16489565,0.852341663,-34.96,-30.78,96,0
MISM,7/16/12,-32.07135417,1.150888579,-35.84,-29.84,96,0
MISM,7/17/12,-26.08197918,2.358573896,-32.43,-21.73,96,0
MISM,7/18/12,-27.50562495,1.486101085,-30.6,-24.83,96,0
MISM,7/19/12,-32.32197913,1.803152046,-34.74,-27.55,96,0
MISM,7/20/12,-27.1470834,3.386198846,-33.57,-20.78,96,0
MISM,7/21/12,-27.82937493,2.625081328,-31.46,-22.88,96,0
MISM,7/22/12,-29.760625,1.89051646,-33.72,-26.05,96,0
MISM,7/23/12,-26.96458322,3.314301691,-33.9,-22.37,96,0
MISM,7/24/12,-18.10374995,1.954387428,-22.48,-14.57,96,0
MISM,7/25/12,-15.75812499,2.464215655,-22.27,-12.54,96,0
MISM,7/26/12,-13.55812503,1.351841157,-18.43,-12.12,96,0
MISM,7/27/12,-17.03125011,1.608306976,-19.27,-13.35,96,0
MISM,7/28/12,-15.69135415,1.665578898,-19.87,-12.01,96,0
MISM,7/29/12,-23.99041665,1.982774693,-26.44,-19.81,96,0
MISM,7/30/12,-28.56552086,1.486778919,-30.91,-24.79,96,0
MISM,7/31/12,-28.17177083,1.317916168,-32.12,-24.99,96,0
MISM,8/1/12,-26.82479175,1.189764252,-30.09,-24.24,96,0
MISM,8/2/12,-16.5415625,7.244367429,-28.53,-8.29,96,0
MISM,8/3/12,-17.96104164,5.08778798,-29.67,-8.92,96,0
MISM,8/4/12,-28.96999989,1.665931025,-32.42,-23.7,96,0
MISM,8/5/12,-26.35145831,2.585415767,-32.13,-22.27,96,0
MISM,8/6/12,-29.99593745,3.289678,-35.07,-23.45,96,0
MISM,8/7/12,-28.61937497,2.312175033,-33.93,-22.92,96,0
MISM,8/8/12,-25.22833337,3.465873771,-31.26,-17.92,96,0
MISM,8/9/12,-26.03593749,4.925159983,-33.49,-17.17,96,0
MISM,8/10/12,-33.3010416,1.760509664,-36.44,-29.49,96,0
MISM,8/11/12,-31.35739583,2.379309989,-35.5,-27.2,96,0
MISM,8/12/12,-30.44458328,2.735893938,-36.19,-26.81,96,0
MISM,8/13/12,-36.2683332,1.47284749,-39.26,-31.79,96,0
MISM,8/14/12,-33.41614562,1.591999285,-37.3,-30.45,96,0
MISM,8/15/12,-33.94177077,0.971461102,-36.16,-31.67,96,0
MISM,8/16/12,-33.13812508,2.310059182,-36.78,-25.04,96,0
MISM,8/17/12,-31.03302085,2.73067524,-35.49,-24.75,96,0
MISM,8/18/12,-33.75999989,1.292560914,-36.94,-30.48,96,0
MISM,8/19/12,-31.19125003,2.396798488,-37.97,-27.86,96,0
MISM,8/20/12,-27.39562492,1.954375349,-32.77,-24.99,96,0
MISM,8/21/12,-27.3648958,7.079934061,-33.78,-13.09,96,0
MISM,8/22/12,-11.43916665,2.047964173,-13.93,-6.85,96,0
MISM,8/23/12,-16.06187494,3.472892428,-20.44,-6.89,96,0
MISM,8/24/12,-18.20447915,2.553960358,-22.62,-14.02,96,0
MISM,8/25/12,-13.63333332,2.303147381,-20.61,-10.72,96,0
MISM,8/26/12,-24.10020832,2.437935673,-27.39,-18.79,96,0
MISM,8/27/12,-30.64510417,1.613784599,-34.24,-27.44,96,0
MISM,8/28/12,-31.45749998,2.201483389,-34.55,-23.38,96,0
MISM,8/29/12,-23.61499995,2.469629857,-29.08,-19.91,96,0
MISM,8/30/12,-22.04729166,2.586425158,-26.12,-16.96,96,0
MISM,8/31/12,-18.51562503,2.018144998,-23.92,-15.82,96,0
MISM,9/1/12,-14.58291662,1.436416506,-18.25,-12.36,96,0
MISM,9/2/12,-17.57104168,2.912369446,-25.25,-11.68,96,0
MISM,9/3/12,-23.2079167,1.91158293,-26.22,-18.45,96,0
MISM,9/4/12,-17.80083336,2.062282701,-23.99,-12.02,96,0
MISM,9/5/12,-21.19958333,1.775817689,-26.37,-18.98,96,0
MISM,9/6/12,-25.89020834,0.964998025,-28.26,-24.2,96,0
MISM,9/7/12,-27.52062502,1.011731042,-29.84,-25.54,96,0
MISM,9/8/12,-29.05291657,2.511432867,-34.5,-25.8,96,0
MISM,9/9/12,-32.46749983,1.024547129,-35.44,-30.37,96,0
MISM,9/10/12,-29.52239577,2.452388106,-33.15,-23.1,96,0
MISM,9/11/12,-21.14125004,2.032534936,-23.73,-15.61,96,0
MISM,9/12/12,-14.17989578,2.522596202,-18.22,-10.48,96,0
MISM,9/13/12,-17.92812493,1.860757202,-21.55,-14.11,96,0
MISM,9/14/12,-19.1711458,1.590811702,-22.61,-16.67,96,0
MISM,9/15/12,-17.71552087,1.894869428,-21.18,-12.92,96,0
MISM,9/16/12,-22.35770835,1.234974906,-24.94,-19.74,96,0
MISM,9/17/12,-22.5066666,0.906479285,-25.75,-20.71,96,0
MISM,9/18/12,-25.97718751,2.726823382,-31.65,-21.99,96,0
MISM,9/19/12,-27.96937509,3.619355292,-32.85,-20.64,96,0
MISM,9/20/12,-25.97072913,3.182437808,-32.15,-18.8,96,0
MISM,9/21/12,-17.48958327,3.911823905,-27.83,-11.67,96,0
MISM,9/22/12,-15.89916661,2.923119334,-20.3,-9.16,96,0
MISM,9/23/12,-17.75041666,2.123800925,-22.5,-14.36,96,0
MISM,9/24/12,-17.54479169,2.26029017,-21.84,-13.78,96,0
MISM,9/25/12,-22.8097916,2.21166519,-26.72,-18.29,96,0
MISM,9/26/12,-22.55791662,1.257368166,-24.77,-18.65,96,0
MISM,9/27/12,-25.66729172,1.682789317,-28.88,-23.02,96,0
MISM,9/28/12,-28.52406253,1.224153158,-30.61,-25.43,96,0
MISM,9/29/12,-28.57593745,2.164208146,-32.21,-23.48,96,0
MISM,9/30/12,-25.27208332,1.823632502,-29.6,-21.86,96,0
MISM,10/1/12,-25.83489581,1.544605499,-29.05,-21.13,96,0
MISM,10/2/12,-21.85635418,3.150785768,-29.26,-17.43,96,0
MISM,10/3/12,-14.13385412,4.006631902,-20.11,-8.99,96,0
MISM,10/4/12,-13.32489585,1.854475129,-17.16,-10.57,96,0
MISM,10/5/12,-15.06218751,1.963991252,-18.07,-12.22,96,0
MISM,10/6/12,-10.37833329,1.964944703,-14.69,-7.1,96,0
MISM,10/7/12,-8.126458327,0.896105051,-10.6,-6.98,96,0
MISM,10/8/12,-11.28937504,2.234341904,-16.16,-8.23,96,0
MISM,10/9/12,-15.90312507,1.835965456,-18.7,-12.14,96,0
MISM,10/10/12,-18.05270836,1.875378612,-20.91,-12.42,96,0
MISM,10/11/12,-17.06395834,2.37223212,-21.06,-13.11,96,0
MISM,10/12/12,-19.04312498,1.472333758,-22.55,-15.47,96,0
MISM,10/13/12,-16.00552088,2.812267794,-22.58,-12.56,96,0
MISM,10/14/12,-16.2859375,1.780400661,-19.3,-13.14,96,0
MISM,10/15/12,-15.70156253,1.771560995,-19.56,-12.19,96,0
MISM,10/16/12,-17.69927081,2.148282142,-21.69,-13.49,96,0
MISM,10/17/12,-18.77510418,1.471265882,-21.23,-13.71,96,0
MISM,10/18/12,-18.67260417,2.291843791,-22.47,-14.17,96,0
MISM,10/19/12,-18.47812504,1.786802106,-22.88,-14.64,96,0
MISM,10/20/12,-17.69552073,1.461456246,-21.13,-11.49,96,0
MISM,10/21/12,-16.1794792,2.809666221,-21.28,-11.75,96,0
MISM,10/22/12,-13.17770831,0.923018503,-14.98,-10.57,96,0
MISM,10/23/12,-14.00802085,1.066945082,-16.22,-11.97,96,0
MISM,10/24/12,-14.54656249,1.201709196,-16.24,-12.3,96,0
MISM,10/25/12,-17.86656245,1.137579034,-20.74,-15.9,96,0
MISM,10/26/12,-17.41947925,1.70308348,-21.04,-14.65,96,0
MISM,10/27/12,-16.44218753,1.692751896,-19.13,-13.43,96,0
MISM,10/28/12,-17.59135413,1.6329397,-22.19,-14.41,96,0
MISM,10/29/12,-17.49927074,1.861705662,-21.15,-12.7,96,0
MISM,10/30/12,-15.64541667,2.61822751,-20.12,-10.58,96,0
MISM,10/31/12,-15.58697911,1.462934344,-18.33,-11.12,96,0
MISM,11/1/12,-16.05552083,1.813632547,-20.16,-12.34,96,0
MISM,11/2/12,-14.37572913,2.666815045,-19.21,-10,96,0
MISM,11/3/12,-13.15333331,2.7538821,-17.81,-7.63,96,0
MISM,11/4/12,-13.25927086,1.20706272,-15.86,-9.87,96,0
MISM,11/5/12,-12.72885419,2.133447351,-16.51,-8.2,96,0
MISM,11/6/12,-10.24854165,2.583233374,-15.63,-4.92,96,0
MISM,11/7/12,-12.06364579,1.26247553,-14.91,-7.68,96,0
MISM,11/8/12,-11.87666673,1.984015984,-15.72,-9.36,96,0
MISM,11/9/12,-9.262708336,2.334499425,-13.83,-5.19,96,0
MISM,11/10/12,-11.18239587,1.608007406,-14.65,-7.38,96,0
MISM,11/11/12,-10.00916665,1.821549157,-13.43,-7.52,96,0
MISM,11/12/12,-8.326979175,0.516202993,-9.61,-7.01,96,0
MISM,11/13/12,-8.450416649,1.159323688,-11.72,-5.58,96,0
MISM,11/14/12,-8.073958322,1.383964902,-10.34,-4.78,96,0
MISM,11/15/12,-3.052395831,3.962733703,-9.98,0.92,96,0
MISM,11/16/12,-2.316041661,1.734771621,-7.2,0.07,96,0
MISM,11/17/12,-5.84854167,1.927607728,-10.09,-3.61,96,0
MISM,11/18/12,-4.511666667,1.796548564,-8.1,-0.23,96,0
MISM,11/19/12,-6.046145827,1.076400796,-8.71,-4.25,96,0
MISM,11/20/12,-6.52875002,1.365592421,-9.51,-3.91,96,0
MISM,11/21/12,-3.868854158,1.230608637,-6,-1.55,96,0
MISM,11/22/12,-3.364791662,0.879576426,-5.3,-2.06,96,0
MISM,11/23/12,-3.389374995,1.820725597,-7.11,1.83,96,0
MISM,11/24/12,-4.006458317,1.267052924,-6.4,0.77,96,0
MISM,11/25/12,-6.240625019,0.434360538,-7.82,-5.81,96,0
MISM,11/26/12,-7.883854161,0.625088397,-9,-6.84,96,0
MISM,11/27/12,-5.568229164,1.3430233,-8.18,-3.12,96,0
MISM,11/28/12,-3.52892474,1.9441431,-7.34,-0.15,93,0
MISM,11/29/12,-5.967083365,1.169946388,-9.02,-4.48,96,0
MISM,11/30/12,-5.46395833,1.385286192,-8.28,-2.13,96,0
MISM,12/1/12,-3.916770831,1.428056833,-6.28,-1.58,96,0
MISM,12/2/12,-3.740625006,1.022530206,-5.6,-2.21,96,0
MISM,12/3/12,-1.894062493,1.783304772,-5.91,2.79,96,0
MISM,12/4/12,-1.234062506,1.296168107,-4.11,1.92,96,0
MISM,12/5/12,0.38614583,1.072922583,-1.62,2.11,96,0
MISM,12/6/12,1.982395832,1.25003053,-0.39,5.36,96,0
MISM,12/7/12,2.345937502,1.328373433,-0.47,4.01,96,0
MISM,12/8/12,1.178229178,1.247561834,-1.33,3.41,96,0
MISM,12/9/12,1.458437495,1.452757327,-1.82,3.9,96,0
MISM,12/10/12,-0.298124999,1.164140811,-1.91,1.74,96,0
MISM,12/11/12,-1.496875002,0.941572383,-2.76,1.37,96,0
MISM,12/12/12,-1.776041672,1.421377746,-3.91,1.56,96,0
MISM,12/13/12,-2.917812494,0.526178289,-3.69,-2.12,96,0
MISM,12/14/12,-2.269062498,0.723501833,-3.36,-0.6,96,0
MISM,12/15/12,-2.463645823,0.766679941,-3.4,-0.78,96,0
MISM,12/16/12,-2.048020827,0.542115965,-3.26,-1.02,96,0
MISM,12/17/12,-1.934999998,1.038841463,-3.55,0.19,96,0
MISM,12/18/12,-4.052708363,0.547440917,-5.13,-3.22,96,0
MISM,12/19/12,-4.875624975,0.530711162,-5.91,-3.71,96,0
MISM,12/20/12,-3.338124995,1.064987565,-4.97,-1.53,96,0
MISM,12/21/12,-3.941770855,1.19344614,-5.43,-0.32,96,0
MISM,12/22/12,-3.870520841,2.048731767,-8.35,3.01,96,0
MISM,12/23/12,-4.747812507,1.072769387,-7.13,-2.77,96,0
MISM,12/24/12,-2.752916676,1.188057182,-5.13,-0.83,96,0
MISM,12/25/12,-0.958854169,1.072707222,-2.63,1.18,96,0
MISM,12/26/12,1.271770835,1.886522835,-1.96,4.83,96,0
MISM,12/27/12,3.835416671,1.861257025,0.16,6.15,96,0
MISM,12/28/12,3.345729185,1.213099337,0.81,5.34,96,0
MISM,12/29/12,2.465625007,0.941732797,0.61,6.36,96,0
MISM,12/30/12,2.417291667,1.49828636,-2.11,4.85,96,0
MISM,12/31/12,-1.868124997,0.925150699,-3.47,1.35,96,0
MISM,1/1/13,0.462395831,1.563256213,-2.49,3.08,96,0
MISM,1/2/13,1.447500006,1.300110934,-1.3,3.73,96,0
MISM,1/3/13,-2.128958337,0.90984034,-4.23,-0.82,96,0
MISM,1/4/13,-0.350520826,1.149037457,-2.36,1.19,96,0
MISM,1/5/13,0.905,1.422344243,-1.75,3.67,96,0
MISM,1/6/13,-1.252499997,1.178991537,-3.22,2,96,0
MISM,1/7/13,-2.684791677,0.947700804,-4.58,-1.07,96,0
MISM,1/8/13,-2.331458329,0.417753342,-3.21,-1.55,96,0
MISM,1/9/13,-2.362708329,0.446675391,-3.15,-1.48,96,0
MISM,1/10/13,-1.884062495,1.005983755,-4.05,0.07,96,0
MISM,1/11/13,-2.324895842,1.165984565,-4.67,-0.32,96,0
MISM,1/12/13,-4.038958333,0.469116689,-4.72,-1.73,96,0
MISM,1/13/13,-2.283854166,2.033905438,-6.76,0.25,96,0
MISM,1/14/13,-0.007708335,1.088834698,-2.18,2.21,96,0
MISM,1/15/13,1.210000001,0.802274402,-0.4,2.83,96,0
MISM,1/16/13,-1.772604162,0.693182198,-3.21,-0.04,96,0
MISM,1/17/13,-0.074999998,1.772472545,-2.99,4.16,96,0
MISM,1/18/13,-0.796145832,0.722318445,-1.98,0.56,96,0
MISM,1/19/13,-1.841458339,1.20112577,-4.03,0.59,96,0
MISM,1/20/13,-1.544583325,0.788560195,-3.22,-0.17,96,0
MISM,1/21/13,-4.361458319,0.848513212,-6.03,-3.13,96,0
MISM,1/22/13,-4.686874986,1.221654018,-7.1,-2.51,96,0
MISM,1/23/13,-1.811041671,1.901228123,-5.45,0.48,96,0
MISM,1/24/13,-2.538437488,1.615375663,-6.12,-0.56,96,0
MISM,1/25/13,-1.628750008,2.087500784,-5.55,3.01,96,0
MISM,1/26/13,-2.665625012,1.366509056,-5.48,1.77,96,0
MISM,1/27/13,-4.149374993,1.013449355,-5.99,-1.4,96,0
MISM,1/28/13,-2.887083341,1.780552204,-5.39,1.58,96,0
MISM,1/29/13,-3.165104159,1.318355425,-5.14,1.26,96,0
MISM,1/30/13,-2.68031249,2.315494449,-7.42,2.46,96,0
MISM,1/31/13,-4.84291666,1.557920962,-8.36,-0.25,96,0
MISM,2/1/13,-6.734687495,2.053336139,-10.97,-3.06,96,0
MISM,2/2/13,-5.747187538,2.341861015,-9.99,-0.48,96,0
MISM,2/3/13,-6.272083297,0.842830942,-8.33,-4.45,96,0
MISM,2/4/13,-7.841354186,0.920322163,-9.6,-5.71,96,0
MISM,2/5/13,-10.03354165,1.114981215,-13.76,-7.83,96,0
MISM,2/6/13,-11.20406247,2.024848087,-14.72,-8.16,96,0
MISM,2/7/13,-12.37697917,1.751138636,-14.83,-9.41,96,0
MISM,2/8/13,-11.42958335,2.478778947,-15.28,-7.02,96,0
MISM,2/9/13,-11.22135417,1.850823741,-14.29,-8.31,96,0
MISM,2/10/13,-10.34593746,1.986074498,-13.85,-6.7,96,0
MISM,2/11/13,-9.42249996,1.473066956,-12.36,-5.7,96,0
MISM,2/12/13,-10.69843749,2.171778478,-14.72,-7.62,96,0
MISM,2/13/13,-13.36322917,1.140990757,-15.72,-11.16,96,0
MISM,2/14/13,-13.73968745,0.71760779,-16.3,-12.47,96,0
MISM,2/15/13,-15.24687497,2.247047298,-18.79,-12.32,96,0
MISM,2/16/13,-11.07281253,2.183984624,-14.8,-6.54,96,0
MISM,2/17/13,-9.715729132,2.299039945,-13.45,-6.01,96,0
MISM,2/18/13,-6.581562522,2.805590423,-10.98,-2.88,96,0
MISM,2/19/13,-4.176979192,0.619259526,-6.08,-3.31,96,0
MISM,2/20/13,-6.658958338,1.252848963,-9.51,-3.99,96,0
MISM,2/21/13,-6.068541636,2.008752398,-9.61,-2.3,96,0
MISM,2/22/13,-4.194062504,1.078924981,-5.71,-1.76,96,0
MISM,2/23/13,-4.224166676,1.111596913,-6.54,-2.53,96,0
MISM,2/24/13,-6.014687526,1.580474251,-8.43,-3.34,96,0
MISM,2/25/13,-9.599479189,0.931151379,-12.39,-8.09,96,0
MISM,2/26/13,-9.429479142,2.069411003,-12.77,-5.91,96,0
MISM,2/27/13,-13.58093747,0.820592976,-15.21,-11.46,96,0
MISM,2/28/13,-15.21781248,1.004848402,-17.39,-13.61,96,0
MISM,3/1/13,-15.58156253,1.539389726,-18,-11.17,96,0
MISM,3/2/13,-14.37520834,1.29959341,-16.73,-11.86,96,0
MISM,3/3/13,-14.09020835,1.204463569,-16.72,-11.8,96,0
MISM,3/4/13,-15.72135417,1.171873527,-17.73,-12.95,96,0
MISM,3/5/13,-16.23979164,1.077736325,-18.64,-14.25,96,0
MISM,3/6/13,-18.42250005,2.107971903,-22.24,-12.74,96,0
MISM,3/7/13,-18.54479171,2.330292948,-22.11,-13.52,96,0
MISM,3/8/13,-14.63156251,1.715954983,-18.23,-10.78,96,0
MISM,3/9/13,-13.175,0.934370567,-15.63,-10.56,96,0
MISM,3/10/13,-13.44239583,1.384825815,-16.97,-10.57,96,0
MISM,3/11/13,-14.3054167,1.198719423,-16.31,-11.01,96,0
MISM,3/12/13,-12.83010416,3.003070555,-17.31,-8.05,96,0
MISM,3/13/13,-11.98760418,1.194490634,-15.64,-8.92,96,0
MISM,3/14/13,-11.01718748,1.269785523,-14.13,-7.81,96,0
MISM,3/15/13,-9.996041685,1.411587788,-15.27,-7.7,96,0
MISM,3/16/13,-8.861145799,1.10241919,-11.61,-7.07,96,0
MISM,3/17/13,-10.86395832,1.411319268,-14.69,-8.57,96,0
MISM,3/18/13,-6.773645823,1.527250082,-10.25,-3.42,96,0
MISM,3/19/13,-8.886666651,0.872863006,-11.47,-7.55,96,0
MISM,3/20/13,-13.22947917,1.382829579,-15.67,-10.75,96,0
MISM,3/21/13,-18.19916658,1.902522219,-21.32,-14.35,96,0
MISM,3/22/13,-22.14802088,0.79873015,-24.77,-20.74,96,0
MISM,3/23/13,-23.59729177,1.066577857,-26.49,-21.76,96,0
MISM,3/24/13,-22.23489577,0.735751641,-24.34,-20.56,96,0